| time (UTC) | temp F | wind direction | speed MPH | gust MPH | rain 1hr in | rain 24hr in | rain mn in | humidity % | barometer mb |
| 20260508133053 | 55 | 75 | 3.0 | 3.0 | 0.00 | 0.00 | 0.00 | 69 | 1040.4 |
| 20260508131548 | 54 | 103 | 1.0 | 3.0 | 0.00 | 0.00 | 0.00 | 71 | 1040.3 |
| 20260508130044 | 53 | 68 | 0.0 | 2.0 | 0.00 | 0.00 | 0.00 | 74 | 1040.4 |
| 20260508124542 | 48 | 84 | 2.0 | 3.0 | 0.00 | 0.00 | 0.00 | 93 | 1040.5 |
| 20260508123039 | 45 | 97 | 0.0 | 2.0 | 0.00 | 0.00 | 0.00 | 97 | 1040.4 |
| 20260508121536 | 43 | 15 | 0.0 | 1.0 | 0.00 | 0.00 | 0.00 | 97 | 1040.5 |
| 20260508120035 | 41 | 90 | 0.0 | 1.0 | 0.00 | 0.00 | 0.00 | 98 | 1040.4 |
| 20260508114531 | 42 | 74 | 0.0 | 0.0 | 0.00 | 0.00 | 0.00 | 97 | 1040.3 |
| 20260508113028 | 36 | 106 | 0.0 | 0.0 | 0.00 | 0.00 | 0.00 | 98 | 1040.0 |
| 20260508111524 | 34 | 180 | 0.0 | 1.0 | 0.00 | 0.00 | 0.00 | 98 | 1040.4 |
| 20260508110020 | 34 | 106 | 0.0 | 1.0 | 0.00 | 0.00 | 0.00 | 98 | 1040.2 |
| 20260508104517 | 34 | 157 | 0.0 | 0.0 | 0.00 | 0.00 | 0.00 | 98 | 1040.2 |
| 20260508103013 | 34 | 187 | 0.0 | 1.0 | 0.00 | 0.00 | 0.00 | 98 | 1040.3 |
| 20260508101511 | 34 | 82 | 0.0 | 0.0 | 0.00 | 0.00 | 0.00 | 98 | 1040.2 |
| 20260508100009 | 34 | 106 | 0.0 | 0.0 | 0.00 | 0.00 | 0.00 | 97 | 1040.1 |
| 20260508094506 | 35 | 120 | 0.0 | 0.0 | 0.00 | 0.00 | 0.00 | 97 | 1040.2 |
| 20260508093003 | 35 | 106 | 0.0 | 1.0 | 0.00 | 0.00 | 0.00 | 97 | 1040.1 |
| 20260508091501 | 35 | 105 | 1.0 | 1.0 | 0.00 | 0.00 | 0.00 | 97 | 1040.3 |
| 20260508085959 | 35 | 90 | 0.0 | 1.0 | 0.00 | 0.00 | 0.00 | 97 | 1040.3 |
| 20260508084454 | 35 | 114 | 1.0 | 1.0 | 0.00 | 0.00 | 0.00 | 97 | 1040.3 |
| 20260508082950 | 36 | 106 | 0.0 | 0.0 | 0.00 | 0.00 | 0.00 | 97 | 1040.4 |
| 20260508081447 | 36 | 114 | 0.0 | 1.0 | 0.00 | 0.00 | 0.00 | 97 | 1040.6 |
| 20260508075944 | 37 | 157 | 1.0 | 2.0 | 0.00 | 0.00 | 0.00 | 97 | 1040.6 |
| 20260508074443 | 37 | 74 | 0.0 | 0.0 | 0.00 | 0.00 | 0.00 | 96 | 1040.6 |
| 20260508072939 | 38 | 114 | 0.0 | 1.0 | 0.00 | 0.00 | 0.00 | 96 | 1040.7 |
| 20260508071437 | 39 | 105 | 0.0 | 1.0 | 0.00 | 0.00 | 0.00 | 96 | 1041.0 |
| 20260508065935 | 38 | 140 | 0.0 | 1.0 | 0.00 | 0.00 | 0.00 | 96 | 1041.1 |
| 20260508064433 | 38 | 114 | 0.0 | 1.0 | 0.00 | 0.00 | 0.00 | 96 | 1041.0 |
| 20260508062931 | 38 | 114 | 0.0 | 0.0 | 0.00 | 0.00 | 0.00 | 96 | 1041.1 |
| 20260508061430 | 39 | 168 | 1.0 | 2.0 | 0.00 | 0.00 | 0.00 | 96 | 1041.1 |
| 20260508055925 | 39 | 103 | 0.0 | 1.0 | 0.00 | 0.00 | 0.00 | 95 | 1041.2 |
| 20260508054422 | 38 | 23 | 0.0 | 1.0 | 0.00 | 0.00 | 0.00 | 95 | 1040.9 |
| 20260508052919 | 38 | 109 | 0.0 | 0.0 | 0.00 | 0.00 | 0.00 | 95 | 1041.0 |
| 20260508051414 | 38 | 7 | 0.0 | 0.0 | 0.00 | 0.00 | 0.00 | 94 | 1040.9 |
| 20260508045909 | 39 | 101 | 2.0 | 2.0 | 0.00 | 0.01 | 0.01 | 94 | 1040.7 |
| 20260508044407 | 40 | 112 | 2.0 | 3.0 | 0.00 | 0.01 | 0.01 | 94 | 1040.7 |
| 20260508042908 | 39 | 15 | 0.0 | 0.0 | 0.00 | 0.01 | 0.01 | 93 | 1040.5 |
| 20260508041405 | 40 | 90 | 2.0 | 2.0 | 0.00 | 0.01 | 0.01 | 92 | 1040.6 |
| 20260508035902 | 41 | 60 | 0.0 | 3.0 | 0.00 | 0.01 | 0.01 | 92 | 1040.5 |
| 20260508034359 | 41 | 114 | 0.0 | 2.0 | 0.00 | 0.01 | 0.01 | 91 | 1040.4 |
| 20260508032857 | 41 | 53 | 0.0 | 1.0 | 0.00 | 0.01 | 0.01 | 90 | 1040.1 |
| 20260508031354 | 42 | 75 | 0.0 | 2.0 | 0.00 | 0.01 | 0.01 | 90 | 1040.4 |
| 20260508025850 | 42 | 23 | 0.0 | 2.0 | 0.00 | 0.01 | 0.01 | 89 | 1040.1 |
| 20260508024346 | 42 | 106 | 0.0 | 0.0 | 0.00 | 0.01 | 0.01 | 88 | 1040.0 |
| 20260508022842 | 43 | 12 | 0.0 | 2.0 | 0.00 | 0.01 | 0.01 | 87 | 1040.1 |
| 20260508021337 | 44 | 90 | 0.0 | 1.0 | 0.00 | 0.01 | 0.01 | 85 | 1039.7 |
| 20260508015834 | 45 | 115 | 0.0 | 2.0 | 0.00 | 0.01 | 0.01 | 85 | 1039.5 |
| 20260508014331 | 45 | 105 | 0.0 | 1.0 | 0.00 | 0.01 | 0.01 | 84 | 1039.4 |
| 20260508012831 | 47 | 26 | 1.0 | 1.0 | 0.00 | 0.01 | 0.01 | 83 | 1039.0 |
| 20260508011330 | 48 | 254 | 0.0 | 0.0 | 0.00 | 0.01 | 0.01 | 82 | 1038.7 |
| 20260508005827 | 49 | 119 | 0.0 | 3.0 | 0.00 | 0.01 | 0.01 | 81 | 1038.7 |
| 20260508004322 | 49 | 174 | 0.0 | 2.0 | 0.00 | 0.01 | 0.01 | 79 | 1038.6 |
| 20260508002819 | 50 | 135 | 2.0 | 2.0 | 0.00 | 0.01 | 0.01 | 78 | 1038.7 |
| 20260508001313 | 50 | 112 | 0.0 | 3.0 | 0.00 | 0.01 | 0.01 | 78 | 1038.5 |
| 20260507235808 | 51 | 108 | 5.0 | 9.0 | 0.00 | 0.01 | 0.01 | 76 | 1038.4 |
| 20260507234305 | 52 | 112 | 3.0 | 6.0 | 0.00 | 0.01 | 0.01 | 71 | 1038.6 |
| 20260507232803 | 52 | 83 | 0.0 | 6.0 | 0.00 | 0.01 | 0.01 | 68 | 1038.5 |
| 20260507231258 | 52 | 77 | 1.0 | 7.0 | 0.00 | 0.01 | 0.01 | 68 | 1038.9 |
| 20260507225757 | 52 | 66 | 4.0 | 8.0 | 0.00 | 0.01 | 0.01 | 67 | 1039.0 |
| 20260507224253 | 51 | 14 | 2.0 | 7.0 | 0.00 | 0.01 | 0.01 | 68 | 1039.0 |
| 20260507222748 | 51 | 41 | 2.0 | 7.0 | 0.00 | 0.01 | 0.01 | 68 | 1039.2 |
| 20260507221243 | 56 | 56 | 0.0 | 16.0 | 0.00 | 0.01 | 0.01 | 62 | 1039.0 |
| 20260507215740 | 56 | 238 | 5.0 | 6.0 | 0.00 | 0.01 | 0.01 | 63 | 1038.7 |
| 20260507214238 | 56 | 147 | 0.0 | 5.0 | 0.00 | 0.01 | 0.01 | 64 | 1038.4 |
| 20260507212738 | 57 | 171 | 2.0 | 8.0 | 0.00 | 0.01 | 0.01 | 56 | 1038.7 |
| 20260507211233 | 56 | 236 | 5.0 | 10.0 | 0.00 | 0.01 | 0.01 | 54 | 1038.3 |
| 20260507205729 | 56 | 264 | 3.0 | 9.0 | 0.00 | 0.01 | 0.01 | 59 | 1038.8 |
| 20260507204227 | 54 | 295 | 0.0 | 4.0 | 0.00 | 0.01 | 0.01 | 68 | 1038.9 |
| 20260507202723 | 50 | 77 | 1.0 | 2.0 | 0.00 | 0.01 | 0.01 | 75 | 1039.5 |
| 20260507201223 | 48 | 259 | 2.0 | 3.0 | 0.02 | 0.01 | 0.01 | 76 | 1039.5 |
| 20260507195718 | 49 | 50 | 2.0 | 3.0 | 0.02 | 0.01 | 0.01 | 71 | 1040.1 |
| 20260507194214 | 51 | 90 | 0.0 | 8.0 | 0.00 | 0.00 | 0.00 | 65 | 1040.0 |
| 20260507192710 | 51 | 122 | 3.0 | 4.0 | 0.00 | 0.00 | 0.00 | 65 | 1040.2 |
| 20260507191206 | 55 | 82 | 2.0 | 3.0 | 0.00 | 0.00 | 0.00 | 57 | 1040.2 |
| 20260507185705 | 53 | 227 | 7.0 | 18.0 | 0.00 | 0.00 | 0.00 | 64 | 1040.7 |
| 20260507184203 | 57 | 206 | 4.0 | 8.0 | 0.00 | 0.00 | 0.00 | 43 | 1040.3 |
| 20260507182659 | 56 | 195 | 2.0 | 11.0 | 0.00 | 0.00 | 0.00 | 46 | 1040.5 |
| 20260507181200 | 56 | 207 | 5.0 | 11.0 | 0.00 | 0.00 | 0.00 | 43 | 1040.6 |
| 20260507175655 | 55 | 233 | 8.0 | 12.0 | 0.00 | 0.00 | 0.00 | 44 | 1041.2 |
| 20260507174153 | 55 | 221 | 8.0 | 17.0 | 0.00 | 0.00 | 0.00 | 44 | 1041.3 |
| 20260507172649 | 55 | 185 | 2.0 | 9.0 | 0.00 | 0.00 | 0.00 | 43 | 1041.7 |
| 20260507171144 | 55 | 225 | 3.0 | 10.0 | 0.00 | 0.00 | 0.00 | 43 | 1041.7 |
| 20260507165639 | 55 | 157 | 4.0 | 5.0 | 0.00 | 0.00 | 0.00 | 43 | 1041.8 |
| 20260507164135 | 55 | 103 | 1.0 | 8.0 | 0.00 | 0.00 | 0.00 | 43 | 1042.1 |
| 20260507162631 | 56 | 346 | 1.0 | 6.0 | 0.00 | 0.00 | 0.00 | 43 | 1042.2 |
| 20260507161127 | 55 | 154 | 3.0 | 3.0 | 0.00 | 0.00 | 0.00 | 44 | 1042.4 |
| 20260507155627 | 52 | 209 | 2.0 | 4.0 | 0.00 | 0.00 | 0.00 | 43 | 1042.7 |
| 20260507154124 | 51 | 197 | 0.0 | 7.0 | 0.00 | 0.00 | 0.00 | 44 | 1043.1 |
| 20260507152619 | 51 | 170 | 2.0 | 12.0 | 0.00 | 0.00 | 0.00 | 46 | 1043.2 |
| 20260507151115 | 49 | 212 | 1.0 | 4.0 | 0.00 | 0.00 | 0.00 | 47 | 1043.3 |
| 20260507145609 | 49 | 219 | 2.0 | 3.0 | 0.00 | 0.00 | 0.00 | 50 | 1043.8 |
| 20260507144107 | 48 | 221 | 5.0 | 8.0 | 0.00 | 0.00 | 0.00 | 51 | 1044.2 |
| 20260507142607 | 46 | 229 | 4.0 | 7.0 | 0.00 | 0.00 | 0.00 | 53 | 1044.1 |
| 20260507141103 | 47 | 235 | 4.0 | 5.0 | 0.00 | 0.00 | 0.00 | 53 | 1044.5 |
| 20260507135559 | 46 | 282 | 0.0 | 8.0 | 0.00 | 0.00 | 0.00 | 53 | 1044.4 |
| 20260507134055 | 45 | 201 | 2.0 | 4.0 | 0.00 | 0.00 | 0.00 | 56 | 1044.4 |